Regional Weather Roundup
Issued by NWS Wakefield, VA

Home | Current Version | Previous Version | Graphics & Text | Print | Product List | Glossary On
Versions: 1 2 3 4 5 6 7 8 9 10 11 12 13 14 15 16 17 18 19 20 21 22 23 24 25 26 27 28 29 30 31 32 33 34 35 36 37 38 39 40 41 42 43 44 45 46 47 48 49
000
ASUS41 KAKQ 311713
RWRAKQ

REGIONAL WEATHER ROUNDUP
NATIONAL WEATHER SERVICE WAKEFIELD VA
100 PM EDT MON AUG 31 2015

Note: "fair" indicates few or no clouds below 12,000 feet with no
significant weather and/or obstructions to visibility. * = Denotes
station may not report precipitation (e.g., rain,snow,etc.),
thunder or fog.

VAZ042-051-052>054-056-311800-
NORTHERN VIRGINIA

CITY           SKY/WX    TMP DP  RH WIND       PRES   REMARKS
WASH NATIONAL  CLOUDY    84  64  50 SW7       30.09F
DULLES         CLOUDY    83  63  50 W5        30.09F
FORT BELVOIR   CLOUDY    81  68  65 SE5       30.09F
QUANTICO       CLOUDY    80  69  69 S9        30.11F
FREDERICKSBRG* CLOUDY    82  67  58 SW9       30.10F
STAFFORD*      CLOUDY    80  65  60 S8        30.15F
WARRENTON      CLOUDY    81  70  68 S5        30.11S
CULPEPER*      CLOUDY    79  68  67 S5        30.12S
MANASSAS*      SUNNY     81  66  61 SW5       30.10F
LEESBURG*      CLOUDY    86  70  58 SW7       30.10F
WINCHESTER     CLOUDY    82  64  54 CALM      30.11F
FRONT ROYAL*   FAIR      81  64  57 N3        30.10F
LURAY*         FAIR      82  61  47 CALM      30.12F
$$

VAZ048-049-060>072-079>083-311800-
CENTRAL AND SOUTH CENTRAL VIRGINIA

CITY           SKY/WX    TMP DP  RH WIND       PRES   REMARKS
RICHMOND       PTSUNNY   80  67  64 S8        30.12F
CHESTERFIELD*  CLOUDY    81  61  50 S9        30.14F
PETERSBURG*    PTSUNNY   76  74  93 S6        30.14F
HANOVER        CLOUDY    80  68  66 S9        30.14F
TAPPAHANNOCK*  PTSUNNY   82  64  55 S10       30.13F
QUINTON*       CLOUDY    74  69  82 W5        30.13F
CHARLOTTSVILLE MOSUNNY   83  63  50 S8        30.11F
GORDONSVILLE*  FAIR      83  67  59 S9        30.11F
ORANGE*        PTSUNNY   82  64  54 S6        30.13F
LOUISA*        PTSUNNY   84  66  54 SE9       30.12F
BUMPASS*       FAIR      81  67  63 SW7       30.12F
FARMVILLE*     PTSUNNY   83  68  60 S12       30.11F
CREWE*         CLOUDY   N/A N/A N/A SE9       30.13F
FORT PICKETT*  CLOUDY    78  70  75 S9        30.13F
CHASE CITY*    CLOUDY    79  72  79 SE8       30.13F
CLARKSVILLE*   CLOUDY    77  68  73 E7        30.13F
SOUTH HILL*    CLOUDY    71  69  93 CALM      30.20F
LAWRENCEVILLE* CLOUDY    72  70  94 CALM      30.14F
EMPORIA*       DRIZZLE   72  70  94 CALM      30.13F
$$

VAZ088>098-311800-
SOUTHEAST VIRGINIA

CITY           SKY/WX    TMP DP  RH WIND       PRES   REMARKS
NORFOLK        RAIN      74  70  87 S8        30.12F
VIRGINIA BEACH LGT RAIN  75  70  84 S6        30.12F
NORFOLK NAVAL  LGT RAIN  74  71  91 S8        30.12F
WEST POINT*    CLOUDY    79  69  73 SW6       30.15R
SALUDA*        PTSUNNY   74  71  91 SW3       30.12S
NEWPORT NEWS   LGT RAIN  76  70  82 SW9       30.12F
LANGLEY AFB    LGT RAIN  76  71  86 S9        30.11F
FORT EUSTIS    DRIZZLE   75  75 100 W5        30.11F
WILLIAMSBURG*  CLOUDY    79  72  78 W7        30.14F
HR EXEC AP*      N/A     73  70  88 S7        30.13F
FRANKLIN*      CLOUDY    74  70  86 S8        30.11F
WAKEFIELD      LGT RAIN  74  70  87 CALM      30.13F FOG
$$

VAZ020-022-025-037-045-311800-
WEST CENTRAL AND SOUTHWEST VIRGINIA

CITY           SKY/WX    TMP DP  RH WIND       PRES   REMARKS
STAUNTON*      MOSUNNY   87  60  40 N3        30.15F
WAYNESBORO*    PTSUNNY   84  60  42 CALM      30.14F
HOT SPRINGS VA CLOUDY    71  60  70 CALM      30.26S
LYNCHBURG      CLOUDY    79  65  62 VRB3      30.15F
DANVILLE       CLOUDY    78  68  71 SE5       30.13F
SOUTH BOSTON*  CLOUDY    77  70  78 E6        30.13F
MARTINSVILLE   CLOUDY    82  66  58 SE3       30.17F
ROANOKE        CLOUDY    82  61  48 CALM      30.15F
BLACKSBURG     PTSUNNY   80  58  46 CALM      30.22S
DUBLIN*        CLOUDY    81  59  47 N5        30.20F
MARION*        CLOUDY    75  61  60 N5        30.24F
HILLSVILLE*    MOSUNNY   75  61  60 CALM      30.21F
RICHLANDS*     PTSUNNY   76  22  13 N6        30.23F
WISE*          MOSUNNY   79  57  47 N5        30.24F
ABINGDON*      MOSUNNY   78  60  53 E3        30.20F
$$

MDZ021>025-VAZ099-100-311800-
SOUTHERN MARYLAND AND THE DELMARVA PENINSULA

CITY           SKY/WX    TMP DP  RH WIND       PRES   REMARKS
PATUXENT RIVER CLOUDY    81  67  62 SW8       30.09F
BAY BRIDGE APT   N/A     82  64  54 SW6       30.08F
LEONARDTOWN    NOT AVBL
DOVER          CLOUDY    85  67  54 SW8       30.06F
GEORGETOWN     CLOUDY    86  65  49 W10       30.09F
EASTON         SUNNY     84  68  58 W12       30.13F
CAMBRIDGE      CLOUDY    82  68  61 W6        30.09F
SALISBURY      CLOUDY    84  68  58 SW7       30.09F
OCEAN CITY     CLOUDY    86  63  45 W7        30.09F
WALLOPS ISLAND CLOUDY    84  65  52 W10       30.11F
ACCOMACK*      LGT RAIN  75  63  64 SW7       30.11F
$$

NCZ012>017-030>032-311800-
NORTH CENTRAL AND EASTERN NORTH CAROLINA

CITY           SKY/WX    TMP DP  RH WIND       PRES   REMARKS
ROANOKE RAPIDS LGT RAIN  70  68  94 CALM      30.13F
RALEIGH        CLOUDY    71  68  90 NE5       30.13F
ELIZABETH CITY LGT RAIN  74  72  93 N10       30.13F
AHOSKIE*       RAIN      71  69  94 CALM      30.13F
EDENTON*       DRIZZLE   73  69  89 NE6       30.13F
CURRITUCK*     LGT RAIN  74  70  86 NW5       30.14F
KILL DEVIL HLS CLOUDY    83  67  58 N3        30.12F
MANTEO         CLOUDY    79  68  68 NE5       30.13F
CAPE HATTERAS  CLOUDY    81  73  76 E8        30.12F
TARBORO*       CLOUDY    72  71  95 E8        30.13F
GOLDSBORO      CLOUDY    76  72  88 E13       30.09F
WASHINGTON     LGT RAIN  71  70  95 N5        30.12F
GREENVILLE     LGT RAIN  72  70  94 E3        30.15S
NEW BERN       HVY RAIN  74  72  93 W7        30.14R VSB 1/2
WILMINGTON     CLOUDY    77  74  90 N5        30.09F
$$

VAZ048-311800-
ELSEWHERE

CITY           SKY/WX    TMP DP  RH WIND       PRES   REMARKS
HARRISBURG PA  PTSUNNY   86  67  52 VRB3      30.06F
BALTIMORE      CLOUDY    86  67  52 W9        30.07F
ANNAPOLIS      CLOUDY    84  65  52 W8        30.07F
ANDREWS AFB    CLOUDY    83  65  54 SW8       30.09F
PHILADELPHIA   PTSUNNY   90  65  43 SW9       30.05F
HENDERSON NC   DRIZZLE   69  67  91 NE6       30.14F
GREENSBORO     PTSUNNY   76  68  76 N3        30.13F
ROCKY MOUNT    CLOUDY    73  71  93 VRB5      30.11F
$$

VAZ100-311800-
MARINE

STATION/POSITION TIME  TEMP    WIND        PRES    WAVE   SWELL
                       AIR SEA DIR/SP/G            HT/PER HT/PER
                 (UTC) (F)     (DEG/KT/KT) (MB)    (FT/S) (FT/S)
BRANDYWINE LGT   1600   81 75  280/ 12/ 13 1019.1F
CAPE MAY NJ      1600   81 79  230/  6/  7 1018.7S
LEWES DE         1600   84 75  260/ 11/ 15 1018.8S
15NM E FENWICK I 1650   78 78  210/ 12/ 14 1019.0    2/ 9   2/ 9
OCEAN-CITY-INLET 1600   82 77  260/  6/  8 1018.4F
WACHAPREAGUE VA  1600   80 79  240/  5/  8 1020.1R
THOMAS POINT MD  1602   81 79  250/  9/ 10 1019.6F
GOOSES REEF MD   1600   81 79  260/  4/  6 1020.4S
COVE POINT MD    1600   81     270/  6/  8 1020.1R
SOLOMONS ISLAND  1600      80                N/A
BISHOPS HEAD MD  1600   79 78  230/  8/  9 1018.7R
PINEY POINT MD   1605          250/  4/  6   N/A
POTOMAC MD       1600   80 79  260/  6/  8 1018.7R   1/ 2
CAMBRIDGE MD     1600   81 80  250/  6/ 10 1018.6R
LEWISETTA VA     1600   79 79  250/ 10/ 11 1019.2F
RAPPAHANNOCK LGT 1600          220/ 11/ 12 1020.5S
STINGRAY PT      1600   77 79  230/ 12/ 12 1020.4R   1
YORK RVR RNG VA  1600   77     210/  8/  9 1019.7F
YORKTOWN VA      1600   76 80  200/  3/  6 1019.8F
JAMESTOWN VA     1600   74 81  200/  6/  8   N/A
DOMINION TERM VA 1600   73     220/  6/  7 1020.5F
KIPTOPEKE VA     1600      79  240/ 11/ 12   N/A
CHES BAY BRIDGE  1600   74 79  210/ 12/ 14 1020.4R
CAPE HENRY VA    1600   73     220/  6/ 11   N/A
CHESAPEAKE LGHT  1600   76     250/ 10/ 11 1021.6R
WILLOUBY STN VA  1600   73     200/  8/ 10 1021.5F
CAPE HENRY BUOY  1558      79                N/A     3/10   2/11
1ST LANDING BUOY 1600      79              1020.5R   1/ 4
CAPE CHARLES BUO 1556      78                N/A     2/10   2/10
OFFSHORE WE BUOY 1611      78                N/A     3/ 9   3/ 9
64NM E OF VA BCH 1650   78 78  280/ 10/ 12 1020.2R   3/ 9   3/ 9
DUCK PIER NC     1600   78 79  320/  7/  8 1020.0R
44100 DUCK FRF   1554      78                N/A     3/10   2/11
44056 DUCK FRF   1611      79                N/A     2/ 9   2/11
OREGON INLET NC  1600   79 80   50/  3/  5 1020.7R
HATTERAS NC      1600   80 80   80/  5/  8 1020.0R


USA.gov is the U.S. government's official web portal to all federal, state and local government web resources and services.